Weather History for KLHM - April, 2013

Change the Weather History Date:

Wednesday, April 24, 2013

  Actual Average (KAUN) Record (KAUN)
Temperature  
Mean Temperature 64 °F -  
Max Temperature 87 °F 66 °F 86 °F (1962)
Min Temperature 42 °F 45 °F 33 °F (1964)
Growing Degree Days 14 (Base 50)    
Moisture  
Dew Point 37 °F    
Average Humidity 45    
Maximum Humidity 87    
Minimum Humidity 12    
Precipitation  
Precipitation 0.00 in - - ()
Sea Level Pressure  
Sea Level Pressure 29.80 in    
Wind  
Wind Speed 5 mph (NNW)    
Max Wind Speed 20 mph    
Max Gust Speed 24 mph    
Visibility 10 miles    
Events      
Averages and records for this station are not official NWS values.
T = Trace of Precipitation, MM = Missing Value Source: NWS Daily Summary

Daily Weather History Graph

Daily Weather History Graph

Search for Another Location

Airport or City:

Trip Planner

Search our weather history database for the weather conditions in past years. The results will help you decide how hot, cold, wet, or windy it might be!

Date:

Astronomy

Apr. 24, 2013 Rise Set
Actual Time 6:15 AM PDT 7:51 PM PDT
Civil Twilight 5:47 AM PDT 8:19 PM PDT
Nautical Twilight 5:13 AM PDT 8:54 PM PDT
Astronomical Twilight 4:37 AM PDT 9:30 PM PDT
Moon 7:01 PM PDT (4/24) 5:22 AM PDT (4/24)
Length of Visible Light 14h 32m
Length of Day
13h 35m
Waxing Gibbous, 98% of the Moon is Illuminated
Apr 24
Waxing Gibbous
Apr 25
Full
May 2
Last Quarter
May 9
New
May 17
First Quarter

Hourly Weather History & Observations

Time (PDT) Temp. Windchill Dew Point Humidity Pressure Visibility Wind Dir Wind Speed Gust Speed Precip Events Conditions
12:15 AM 53.6 °F - 37.4 °F 54% 29.84 in 10.0 mi East 4.6 mph - N/A   Clear
12:35 AM 55.4 °F - 39.2 °F 54% 29.84 in 10.0 mi Calm Calm - N/A   Clear
12:55 AM 53.6 °F - 37.4 °F 54% 29.84 in 10.0 mi Calm Calm - N/A   Clear
1:15 AM 53.6 °F - 37.4 °F 54% 29.84 in 10.0 mi South 4.6 mph - N/A   Clear
1:35 AM 55.4 °F - 37.4 °F 51% 29.83 in 10.0 mi Calm Calm - N/A   Clear
1:55 AM 48.2 °F - 39.2 °F 71% 29.84 in 10.0 mi North 4.6 mph - N/A   Clear
2:15 AM 51.8 °F - 39.2 °F 62% 29.83 in 10.0 mi Calm Calm - N/A   Clear
2:35 AM 51.8 °F - 39.2 °F 62% 29.82 in 10.0 mi Calm Calm - N/A   Clear
2:55 AM 53.6 °F - 37.4 °F 54% 29.82 in 10.0 mi Calm Calm - N/A   Clear
3:15 AM 51.8 °F - 37.4 °F 58% 29.83 in 10.0 mi Calm Calm - N/A   Clear
3:35 AM 50.0 °F - 37.4 °F 62% 29.83 in 10.0 mi SSW 4.6 mph - N/A   Clear
3:55 AM 42.8 °F 38.6 °F 37.4 °F 81% 29.82 in 10.0 mi North 6.9 mph - N/A   Clear
4:15 AM 42.8 °F - 37.4 °F 81% 29.82 in 10.0 mi Calm Calm - N/A   Clear
4:35 AM 42.8 °F 40.1 °F 37.4 °F 81% 29.82 in 10.0 mi North 4.6 mph - N/A   Clear
4:55 AM 42.8 °F 41.1 °F 37.4 °F 81% 29.82 in 10.0 mi North 3.5 mph - N/A   Clear
5:15 AM 42.8 °F 40.1 °F 37.4 °F 81% 29.83 in 10.0 mi North 4.6 mph - N/A   Clear
5:35 AM 42.8 °F 41.1 °F 37.4 °F 81% 29.83 in 10.0 mi North 3.5 mph - N/A   Clear
5:55 AM 44.6 °F - 39.2 °F 81% 29.83 in 10.0 mi Calm Calm - N/A   Clear
6:15 AM 46.4 °F - 39.2 °F 76% 29.83 in 10.0 mi Calm Calm - N/A   Clear
6:35 AM 42.8 °F 41.1 °F 37.4 °F 81% 29.83 in 10.0 mi ENE 3.5 mph - N/A   Clear
6:55 AM 42.8 °F 41.1 °F 37.4 °F 81% 29.83 in 10.0 mi North 3.5 mph - N/A   Clear
7:15 AM 44.6 °F 42.2 °F 41.0 °F 87% 29.83 in 10.0 mi NE 4.6 mph - N/A   Clear
7:35 AM 50.0 °F - 44.6 °F 82% 29.83 in 10.0 mi Calm Calm - N/A   Clear
7:55 AM 51.8 °F - 44.6 °F 76% 29.84 in 10.0 mi NNW 3.5 mph - N/A   Clear
8:15 AM 55.4 °F - 44.6 °F 67% 29.84 in 10.0 mi NNW 4.6 mph - N/A   Clear
8:35 AM 59.0 °F - 46.4 °F 63% 29.84 in 10.0 mi NNW 5.8 mph - N/A   Clear
8:55 AM 60.8 °F - 44.6 °F 55% 29.84 in 10.0 mi NNW 5.8 mph - N/A   Clear
9:15 AM 64.4 °F - 42.8 °F 45% 29.84 in 10.0 mi North 8.1 mph - N/A   Clear
9:35 AM 66.2 °F - 42.8 °F 43% 29.84 in 10.0 mi NNW 9.2 mph - N/A   Clear
9:55 AM 69.8 °F - 41.0 °F 35% 29.84 in 10.0 mi NW 8.1 mph - N/A   Clear
10:15 AM 71.6 °F - 37.4 °F 29% 29.84 in 10.0 mi NW 8.1 mph - N/A   Clear
10:35 AM 75.2 °F - 35.6 °F 24% 29.84 in 10.0 mi NNW 9.2 mph - N/A   Clear
10:55 AM 77.0 °F - 33.8 °F 21% 29.84 in 10.0 mi NW 10.4 mph - N/A   Clear
11:15 AM 78.8 °F - 33.8 °F 20% 29.83 in 10.0 mi NW 9.2 mph - N/A   Clear
11:55 AM 80.6 °F - 32.0 °F 17% 29.83 in 10.0 mi NW 10.4 mph 18.4 mph N/A   Clear
12:15 PM 82.4 °F - 32.0 °F 16% 29.82 in 10.0 mi NW 11.5 mph - N/A   Clear
12:35 PM 82.4 °F - 32.0 °F 16% 29.81 in 10.0 mi NW 10.4 mph 19.6 mph N/A   Clear
12:55 PM 82.4 °F - 32.0 °F 16% 29.81 in 10.0 mi NW 11.5 mph 16.1 mph N/A   Clear
1:15 PM 84.2 °F - 32.0 °F 15% 29.80 in 10.0 mi NW 9.2 mph - N/A   Clear
1:35 PM 84.2 °F - 32.0 °F 15% 29.79 in 10.0 mi NW 10.4 mph 17.3 mph N/A   Clear
1:55 PM 86.0 °F - 30.2 °F 13% 29.78 in 10.0 mi NW 10.4 mph 18.4 mph N/A   Clear
2:15 PM 86.0 °F - 30.2 °F 13% 29.78 in 10.0 mi NW 10.4 mph 16.1 mph N/A   Clear
2:35 PM 87.8 °F - 28.4 °F 12% 29.77 in 10.0 mi NW 9.2 mph - N/A   Clear
2:55 PM 87.8 °F - 28.4 °F 12% 29.76 in 10.0 mi NNW 8.1 mph - N/A   Clear
3:15 PM 87.8 °F - 28.4 °F 12% 29.76 in 10.0 mi NW 8.1 mph - N/A   Clear
3:55 PM 87.8 °F - 30.2 °F 13% 29.73 in 10.0 mi NW 13.8 mph 19.6 mph N/A   Clear
4:15 PM 87.8 °F - 28.4 °F 12% 29.73 in 10.0 mi WNW 10.4 mph - N/A   Clear
4:35 PM 87.8 °F - 28.4 °F 12% 29.72 in 10.0 mi WNW 12.7 mph - N/A   Clear
4:55 PM 87.8 °F - 28.4 °F 12% 29.72 in 10.0 mi NW 8.1 mph 18.4 mph N/A   Clear
5:15 PM 87.8 °F - 28.4 °F 12% 29.72 in 10.0 mi NW 12.7 mph 18.4 mph N/A   Clear
5:35 PM 86.0 °F - 30.2 °F 13% 29.72 in 10.0 mi NW 12.7 mph - N/A   Clear
5:55 PM 86.0 °F - 28.4 °F 12% 29.72 in 10.0 mi NW 15.0 mph - N/A   Clear
6:15 PM 84.2 °F - 28.4 °F 13% 29.72 in 10.0 mi NW 13.8 mph - N/A   Clear
6:35 PM 82.4 °F - 30.2 °F 15% 29.72 in 10.0 mi NW 10.4 mph - N/A   Clear
6:55 PM 80.6 °F - 30.2 °F 16% 29.72 in 10.0 mi NW 10.4 mph - N/A   Clear
8:15 PM 71.6 °F - 33.8 °F 25% 29.74 in 10.0 mi Calm Calm - N/A   Clear
8:35 PM 69.8 °F - 35.6 °F 28% 29.74 in 10.0 mi Calm Calm - N/A   Clear
8:55 PM 62.6 °F - 41.0 °F 45% 29.75 in 10.0 mi South 4.6 mph - N/A   Clear
9:15 PM 60.8 °F - 42.8 °F 52% 29.78 in 10.0 mi South 8.1 mph - N/A   Clear
9:35 PM 62.6 °F - 48.2 °F 59% 29.79 in 10.0 mi Calm Calm - N/A   Clear
9:55 PM 62.6 °F - 46.4 °F 55% 29.80 in 10.0 mi SE 19.6 mph 24.2 mph N/A   Clear
10:15 PM 60.8 °F - 46.4 °F 59% 29.82 in 10.0 mi Calm Calm - N/A   Clear
10:35 PM 59.0 °F - 46.4 °F 63% 29.82 in 10.0 mi SSE 13.8 mph - N/A   Clear
11:15 PM 59.0 °F - 46.4 °F 63% 29.84 in 10.0 mi SE 12.7 mph - N/A   Clear
11:35 PM 57.2 °F - 46.4 °F 67% 29.84 in 10.0 mi SE 13.8 mph - N/A   Clear
11:55 PM 55.4 °F - 46.4 °F 72% 29.85 in 10.0 mi SSE 9.2 mph - N/A   Clear